Tracking 19242 objects as of 19-Sep-2018
HD Live streaming from Space Station
objects crossing your sky now

FENGYUN 1C DEB

Track FENGYUN 1C DEB now!
10-day predictions


NORAD ID: 37443
Int'l Code: 1999-025EHM
Perigee: 787.6 km
Apogee: 1,001.9 km
Inclination: 98.4 °
Period: 102.7 minutes
Semi major axis: 7265 km
RCS: 0.0095 m2 (small)
Launch date: May 10, 1999
Source: People's Republic of China (PRC)
Launch site: Taiyaun Space Center, China (TSC)

Note: This is SATELLITE DEBRIS
aabbcc
Your satellite tracking list
Your tracking list is empty




NASA's NSSDC Master Catalog

Two Line Element Set (TLE):
1 37443U 99025EHM 18238.31557433 +.00001251 +00000-0 +77183-3 0  9997
2 37443 098.4397 276.7920 0147479 185.3948 174.5637 14.01800274522320
Source of the keplerian elements: AFSPC